Weather Roundup
Issued by NWS

Home | Current Version | Previous Version | Text Only | Print | Product List | Glossary On
Versions: 1 2 3 4 5 6 7 8 9 10 11 12 13 14 15 16 17 18 19 20 21 22 23 24 25 26 27 28 29 30 31 32 33 34 35 36 37 38 39 40 41 42 43 44 45 46 47 48 49 50
000
NZUS93 KARX 202210
HRRWXR

CURRENT HOURLY OBSERVATIONS ACROSS
MUCH OF THE UPPER MISSISSIPPI VALLEY
NATIONAL WEATHER SERVICE LA CROSSE WI
500 PM CDT FRI APR 20 2018


...SOUTHEAST MINNESOTA...


CITY           SKY/WX    TMP DP  RH WIND       PRES   REMARKS
ROCHESTER      FAIR      44  29  55 SW6       30.43F
ROCHESTER/MAYO FAIR      49  16  26 E6        30.43F
WINONA         FAIR      54  27  35 NW7       30.41S
AUSTIN         FAIR      43  25  49 E3        30.42F
ALBERT LEA     FAIR      43  21  42 E6        30.42F
DODGE CENTER   FAIR      45  28  53 S5        30.43F
PRESTON        FAIR      46  19  34 CALM      30.43F
OWATONNA       FAIR      48  27  43 SE3       30.42F
FARIBAULT      NOT AVBL
$$

...ELSEWHERE IN MINNESOTA...


CITY           SKY/WX    TMP DP  RH WIND       PRES   REMARKS
MINNEAPOLIS    PTSUNNY   52  16  24 CALM      30.42F
INTNL FALLS    FAIR      59  20  22 VRB3      30.34F
DULUTH         FAIR      55  24  30 VRB5      30.37F
RED WING       FAIR      52  16  24 W3        30.43S
REDWOOD FALLS  PTSUNNY   42  32  67 SE10      30.41F
MANKATO        FAIR      44  24  45 SE7       30.43F
WORTHINGTON    CLOUDY    40  33  76 E8        30.39R WCI  34
FAIRMONT       CLOUDY    39  27  62 E5        30.42S
$$

...SOUTHWEST WISCONSIN...


CITY           SKY/WX    TMP DP  RH WIND       PRES   REMARKS
LA CROSSE      FAIR      56  21  25 SW8       30.42F
PRAIRIE DU CHI FAIR      57  25  28 CALM      30.40F
BOSCOBEL       FAIR      60  24  25 CALM      30.41F
LONE ROCK      FAIR      59  21  23 VRB3      30.41F
PLATTEVILLE    FAIR      58  27  31 SE5       30.41F
FORT MC COY    FAIR      55  12  18 S5        30.43F
CAMP DOUGLAS   FAIR      54  13  19 CALM      30.41F
MAUSTON-NEW LI FAIR      54  17  22 SE3       30.41F
VIROQUA        FAIR      51  27  38 SW3       30.41F
WIS DELLS      FAIR      56  10  16 CALM      30.43F
$$

...ELSEWHERE IN WISCONSIN...


CITY           SKY/WX    TMP DP  RH WIND       PRES   REMARKS
MILWAUKEE      PTSUNNY   51  27  39 SE9       30.46F
MADISON        PTSUNNY   55  25  31 NE12      30.43F
GREEN BAY      FAIR      49  17  28 S8        30.45F
EAU CLAIRE     FAIR      54  16  22 W9        30.42F
BLACK RVR FLS  FAIR      56   6  13 W5        30.42F
MEDFORD        FAIR      48  21  34 S3        30.42F
WAUSAU         FAIR      51  15  23 W6        30.41F
WIS RAPIDS     FAIR      54  10  17 SW8       30.43F
MARSHFIELD     FAIR      52  16  24 SE3       30.41F
RICE LAKE      FAIR      51  18  26 CALM      30.43F
$$

...NORTHEAST IOWA...


CITY           SKY/WX    TMP DP  RH WIND       PRES   REMARKS
WATERLOO       FAIR      56  28  34 SE6       30.38F
DUBUQUE        FAIR      57  23  26 VRB3      30.40F
DECORAH        FAIR      50  28  43 CALM      30.41F
MASON CITY     CLOUDY    41  32  70 NE9       30.42F
CHARLES CITY   FAIR      48  32  53 NE8       30.42S
OELWEIN        FAIR      55  28  35 SE5       30.40S
$$

...ELSEWHERE IN IOWA...


CITY           SKY/WX    TMP DP  RH WIND       PRES   REMARKS
DES MOINES     CLOUDY    59  27  29 E9        30.34F
IOWA CITY      FAIR      59  22  24 SE8       30.39F
FORT DODGE     CLOUDY    55  34  45 E8        30.37F
MARSHALLTOWN   PTSUNNY   56  30  37 E9        30.36F
CEDAR RAPIDS   FAIR      59  21  23 S8        30.37F
$$

...NORTHERN ILLINOIS...


CITY           SKY/WX    TMP DP  RH WIND       PRES   REMARKS
CHICAGO-OHARE  FAIR      59  16  18 E13       30.44S
CHICAGO-MIDWAY FAIR      57  11  16 E12       30.46S
MOLINE         FAIR      63  17  17 E10       30.39F
ROCKFORD       PTSUNNY   60  19  20 CALM      30.44F
PEORIA         FAIR      61  22  22 S6        30.41F
$$

NOTE: "FAIR" INDICATES FEW OR NO CLOUDS BELOW 12,000 FEET WITH NO
SIGNIFICANT WEATHER AND/OR OBSTRUCTIONS TO VISIBILITY. WIND
SPEEDS ARE IN MILES-PER-HOUR.




USA.gov is the U.S. government's official web portal to all federal, state and local government web resources and services.